EHI
0 0 0 0 0 0 0 0 0 0 0 0 0 0 0 0 0 0 0 0 0 0 0 0 0 0 0 0 0 0 0 0 0 0 0 0 0 0 0 0 0 0 0
0 0 0 0 0 0 0 0 0 0 0 0 0 0 0 0 0 0 0 0 0 0 0 0 0 0 0 0 0 0 0 0 0 0 0 0 0 0 0 0 0 0 0
0 0 0 0 0 0 0 0 0 0 0 0 0 0 0 0 0 0 0 0 0 0 0 0 0 0 0 0 0 0 0 0 0 0 0 0 0 0 0 0 0 0 0
0 0 0 0 0 0 0 0 0 0 0 0 0 0 0 0 0 0 0 0 0 0 0 0 0 0 0 0 0 0 0 0 0 0 1 0 0 0 0 0 0 0 0
0 0 0 0 0 0 0 0 0 0 0 0 0 0 0 0 0 0 0 0 0 0 0 0 0 0 0 0 0 0 0 0 0 0 0 0 0 0 0 0 0 0 0
0 0 0 0 0 0 0 0 0 0 0 0 0 0 0 0 0 0 0 0 0 0 0 0 0 0 0 0 0 0 0 0 0 0 0 0 0 0 0 0 0 0 0
0 0 0 0 0 0 0 0 0 0 0 0 0 0 0 0 0 0 0 0 0 0 0 0 0 0 0 0 0 0 0 0 0 0 0 0 0 1 1 0 0 0 0
0 0 0 0 0 0 0 0 0 0 0 0 0 0 0 0 0 0 0 0 0 0 0 0 0 0 0 0 0 0 0 0 0 0 0 0 0 1 2 1 0 0 0
0 0 0 0 0 0 0 0 0 0 0 0 0 0 0 0 0 0 0 0 0 0 0 0 0 0 0 0 0 0 0 0 0 0 0 0 0 1 1 1 0 0 0
0 0 0 0 0 0 0 0 0 0 0 0 0 0 0 0 0 0 0 0 0 0 0 0 0 0 0 0 0 0 0 0 0 0 0 0 0 0 0 0 0 0 0
0 0 0 0 0 0 0 0 0 0 0 0 0 0 0 0 0 0 0 0 0 0 0 0 0 0 0 0 0 0 0 0 0 0 0 0 0 0 0 0 0 0 0
0 0 0 0 0 0 0 0 0 0 0 0 0 0 0 0 0 0 0 0 0 0 0 0 0 0 0 0 0 0 0 0 0 0 0 0 0 0 0 0 0 0 0
0 0 0 0 0 0 0 0 0 0 0 0 0 0 0 0 0 0 0 0 0 0 0 0 0 0 0 0 0 0 0 0 0 0 0 0 0 0 0 0 0 0 0
0 0 0 0 0 0 0 0 0 0 0 0 0 0 0 0 0 0 0 0 0 0 0 0 0 0 0 0 0 0 0 0 0 0 0 0 0 0 0 0 0 0 0
0 0 0 0 0 0 0 0 0 0 0 0 0 0 0 0 0 0 0 0 0 0 0 0 1 0 0 0 0 0 0 0 0 0 0 0 0 0 0 0 0 0 0
0 0 0 0 0 0 0 0 0 0 0 0 0 0 0 0 0 0 0 0 0 0 0 0 0 0 0 0 0 0 0 0 0 0 0 0 0 0 0 0 0 0 0
0 0 0 0 0 0 0 0 0 0 0 0 0 0 0 0 0 0 0 0 0 0 0 0 0 0 0 0 0 0 0 0 0 0 0 0 0 0 0 0 0 0 0
0 0 0 0 0 0 0 0 0 0 0 0 0 0 0 0 0 0 0 0 0 0 0 0 0 0 0 0 0 0 0 0 0 0 0 0 0 0 0 0 0 0 0
0 0 0 0 0 0 0 0 0 0 0 0 0 0 0 0 0 0 0 0 0 0 0 0 0 0 0 0 0 0 0 0 0 0 0 0 0 0 0 0 0 0 0
0 0 0 0 0 0 0 0 0 0 0 0 0 0 0 0 0 0 0 0 0 0 0 0 0 0 0 0 0 0 0 0 0 0 0 0 0 0 0 0 0 0 0
0 0 0 0 0 0 0 0 0 0 0 0 0 0 0 0 0 0 0 0 0 0 0 0 0 0 0 0 0 0 0 0 0 0 0 0 0 0 0 0 0 0 0
0 0 0 0 0 0 0 0 0 0 0 0 0 0 0 0 0 0 0 0 0 0 0 0 0 0 0 0 0 0 0 0 0 0 0 0 0 0 0 0 0 0 0
0 0 0 0 0 0 0 0 0 0 0 0 0 0 0 0 0 0 0 0 0 0 0 0 0 0 0 0 0 0 0 0 0 0 0 0 0 0 0 0 0 0 0
0 0 0 0 0 0 0 0 0 0 0 0 0 0 0 0 0 0 0 0 0 0 0 0 0 0 0 0 0 0 0 0 0 0 0 0 0 0 0 0 0 0 0
0 0 0 0 0 0 0 0 0 0 0 0 0 0 0 0 0 0 0 0 0 0 0 0 0 0 0 0 0 0 0 0 0 0 0 0 0 0 0 0 0 0 0
0 0 0 0 0 0 0 0 0 0 0 0 0 0 0 0 0 0 0 0 0 0 0 0 0 0 0 0 0 0 0 0 0 0 0 0 0 0 0 0 0 0 0
Wind_Speed
4 4 3 3 4 4 4 4 5 4 5 5 5 5 5 5 4 4 2 3 2 3 3 4 5 6 6 6 7 8 8 7 7 7 7 7 7 7 8 9 9 9 10
4 4 5 4 4 4 4 5 5 4 4 4 4 4 5 4 4 4 4 4 4 2 1 2 3 5 6 6 7 8 8 8 8 8 8 7 7 8 8 9 9 9 10
5 5 5 5 5 5 5 5 5 5 4 4 4 4 3 4 4 4 4 3 3 5 3 3 3 3 4 5 6 7 8 9 8 8 8 8 8 8 8 9 9 9 9
6 5 5 5 5 5 4 4 4 4 4 3 3 3 2 2 3 3 3 2 2 2 5 5 3 2 3 4 5 7 8 9 9 9 8 8 9 9 9 9 9 10 9
6 5 4 5 6 5 4 5 4 4 4 3 3 2 2 2 1 3 3 2 2 2 2 5 4 3 3 4 5 6 8 9 10 10 9 8 8 9 9 9 9 9 10
6 5 4 5 6 4 4 4 4 3 3 3 3 1 2 2 2 1 2 2 2 2 2 2 3 5 5 4 4 6 8 9 10 10 10 9 9 9 9 9 10 10 10
5 5 5 5 5 5 5 5 4 4 2 2 2 2 2 3 2 2 1 1 2 1 2 2 2 2 4 6 5 6 6 7 9 10 10 10 10 10 10 10 10 10 10
4 4 5 5 5 4 5 5 4 4 2 1 2 2 3 3 3 2 1 1 1 1 2 2 2 3 3 4 6 6 5 6 7 8 9 9 10 10 10 10 10 10 10
3 4 5 6 5 5 4 5 5 4 3 2 1 2 2 1 2 2 2 1 1 0 1 1 2 3 4 3 5 7 6 5 6 7 8 9 9 10 10 10 10 10 10
3 3 5 5 5 4 5 5 4 4 4 2 1 1 2 2 1 2 2 2 2 1 1 1 1 2 2 3 3 5 6 5 5 6 7 8 9 10 10 11 11 10 10
2 3 4 4 4 4 5 5 4 4 3 3 2 2 2 2 2 1 2 2 2 1 1 0 0 0 1 2 2 5 6 5 5 5 5 7 8 9 10 11 11 10 10
2 2 3 3 4 4 4 4 4 4 3 3 2 2 2 2 2 1 1 2 2 1 1 1 0 0 0 1 3 5 5 5 4 4 4 5 6 7 8 9 10 10 10
2 1 2 3 3 3 4 4 3 4 3 3 3 2 2 2 2 2 0 1 2 2 2 1 0 0 1 1 3 4 5 5 5 5 5 4 5 5 6 7 9 10 10
2 2 2 3 3 3 3 3 3 3 3 3 3 3 2 2 2 2 1 1 2 2 2 3 1 1 1 1 3 2 5 5 4 5 5 5 5 5 4 5 6 6 7
2 3 3 3 2 2 3 3 2 2 2 2 2 2 2 1 1 1 1 1 1 2 2 3 2 1 1 2 1 2 4 5 4 4 5 5 5 5 4 4 4 4 3
3 4 4 4 2 2 2 2 3 2 2 1 1 2 2 1 1 1 1 1 2 1 1 2 2 1 1 2 1 2 3 5 5 4 4 4 5 4 4 4 4 3 3
5 5 4 5 4 3 3 2 3 2 3 2 1 1 1 2 1 1 0 1 1 1 1 2 2 2 2 2 2 2 2 2 4 4 4 4 4 4 4 4 4 4 4
6 5 5 5 4 4 4 3 3 3 3 3 2 1 1 0 1 1 1 1 0 1 1 2 3 2 2 2 2 2 2 2 2 5 4 4 4 4 4 4 4 4 3
6 6 6 6 5 5 4 4 4 4 3 3 3 2 2 1 1 0 1 1 1 1 1 2 2 2 1 1 2 2 3 2 2 4 5 5 4 4 4 3 3 3 3
7 7 7 7 6 6 6 6 5 5 4 4 4 3 3 3 2 1 1 1 1 2 2 2 2 2 2 1 1 2 2 2 2 2 2 3 5 5 5 4 4 3 3
8 8 8 8 7 6 6 6 6 6 6 5 5 5 3 2 3 2 2 2 2 2 2 2 2 2 2 2 2 2 2 2 2 1 2 2 3 3 4 6 5 4 3
8 8 9 9 8 7 5 6 8 7 7 7 6 6 5 6 6 5 3 3 3 3 3 3 3 3 3 3 2 2 2 3 3 2 2 2 2 2 2 3 6 5 5
9 9 9 9 10 9 8 10 11 9 8 8 7 6 5 5 6 7 8 8 6 4 4 4 4 3 3 3 4 4 3 2 1 2 2 2 3 2 3 5 6 5 5
9 9 9 10 10 10 10 11 11 12 10 9 9 8 8 8 7 7 7 7 6 6 6 6 5 3 3 3 3 3 2 3 2 2 3 2 3 2 3 5 7 6 6
9 9 9 10 11 11 11 13 12 10 10 11 11 10 10 10 7 8 8 8 7 6 4 2 2 3 4 2 1 3 4 4 4 4 3 2 2 2 3 4 6 7 6
9 9 10 10 11 12 10 13 15 10 11 10 9 10 10 11 8 11 11 9 9 7 7 7 6 5 5 5 4 5 4 4 4 3 4 3 2 2 3 3 4 5 5
Wind_Direction
338 336 324 330 318 322 308 297 288 290 286 276 263 262 261 253 253 249 190 158 259 271 260 230 202 194 202 207 202 197 188 184 174 167 159 153 149 143 140 139 135 132 128
337 331 326 329 328 322 320 302 296 291 277 275 269 255 252 259 252 246 247 185 186 215 232 208 189 196 204 210 206 198 191 184 180 176 171 166 159 152 148 147 143 139 136
333 334 331 334 336 327 315 304 302 290 276 267 257 257 253 255 255 242 243 237 190 167 159 154 159 190 207 211 211 200 189 182 184 182 178 174 167 163 159 156 151 146 143
341 341 337 340 336 326 320 313 301 294 282 276 269 257 246 235 248 242 227 214 220 185 150 134 144 171 197 209 214 200 191 186 186 186 182 177 174 169 166 165 161 155 151
346 351 347 339 337 332 330 322 330 310 297 289 265 240 246 245 239 237 218 200 182 188 166 146 162 169 174 195 205 196 193 189 190 187 184 180 178 173 170 169 169 164 160
351 350 340 349 346 337 337 334 328 311 302 291 274 239 224 223 215 220 234 203 180 177 182 183 183 173 172 181 193 193 192 190 190 186 185 184 181 178 174 173 174 175 170
347 353 341 354 344 343 339 338 329 314 310 311 271 218 197 204 192 174 216 214 174 172 186 193 209 196 172 172 183 178 175 183 188 184 186 187 184 182 180 178 180 180 178
343 343 346 342 350 339 344 344 338 324 332 331 300 263 201 178 179 159 178 183 166 179 199 204 194 197 206 178 147 151 155 174 183 183 188 188 185 184 183 184 185 183 183
330 335 344 342 344 341 353 343 340 338 328 327 332 306 291 212 148 148 142 140 127 172 214 210 199 201 196 184 157 154 154 164 172 180 188 188 185 185 185 186 187 187 187
307 321 335 337 339 346 347 348 359 335 326 333 341 319 320 329 266 161 144 129 118 126 180 196 200 207 192 175 149 133 151 168 173 178 189 189 189 189 189 189 190 193 193
294 304 323 329 337 343 351 350 350 345 339 340 339 334 314 295 284 254 152 142 129 100 86 58 213 207 186 166 171 137 153 168 172 171 182 186 187 191 191 191 192 195 199
276 284 302 317 329 343 347 345 345 351 346 346 331 337 332 324 337 307 177 147 136 115 101 64 237 106 101 124 111 113 144 158 162 160 161 170 178 184 191 194 196 197 202
290 311 293 306 328 340 342 337 340 349 356 350 344 345 339 340 334 314 263 141 148 145 137 138 127 188 141 122 112 123 132 145 155 155 155 166 173 179 192 201 204 205 206
309 313 289 299 313 321 325 332 326 355 357 358 359 350 334 3 339 334 330 196 169 158 165 141 150 159 140 129 100 185 138 133 147 152 151 154 156 160 179 196 203 205 205
283 278 273 277 291 307 315 316 324 344 350 349 353 350 339 23 324 337 327 287 260 194 158 149 147 135 154 117 137 177 138 123 144 153 156 158 158 160 167 168 172 180 193
266 269 260 261 252 256 266 289 301 328 311 354 320 323 341 2 16 352 330 306 294 266 161 140 130 129 106 142 107 111 111 143 148 152 156 158 160 159 157 162 164 175 189
250 247 258 265 263 257 252 241 277 283 285 279 248 290 342 351 339 351 314 289 283 273 174 136 132 131 146 126 120 114 124 148 130 129 150 155 155 157 163 167 171 177 186
257 257 254 257 257 257 263 266 261 259 270 282 279 264 269 18 299 325 303 266 281 292 227 158 150 142 132 109 111 108 104 95 105 106 127 149 155 154 154 163 166 169 176
251 252 245 249 252 249 246 246 249 255 254 258 268 269 262 240 248 190 242 237 224 178 211 187 155 134 154 142 126 112 103 90 94 115 123 129 126 133 138 145 153 151 152
247 250 252 248 250 247 244 244 245 252 253 247 246 249 258 252 254 229 221 223 221 194 190 198 172 169 165 169 190 164 139 128 122 113 100 110 120 125 121 118 118 120 123
250 250 252 251 246 246 247 250 244 246 251 246 236 234 234 264 354 315 283 244 214 215 202 200 192 190 185 188 196 189 170 156 141 158 168 154 158 155 146 135 117 101 100
254 252 250 249 247 242 220 230 253 249 247 245 241 233 216 203 202 208 234 270 288 251 228 207 207 207 201 194 189 207 198 196 170 152 212 156 177 152 133 101 87 96 95
254 251 250 250 247 241 210 213 226 251 252 252 249 237 225 213 212 211 197 205 218 239 269 266 231 219 211 197 201 206 206 221 204 133 220 178 169 154 134 98 96 98 95
256 250 250 248 247 242 213 215 216 235 245 244 242 241 233 225 213 221 215 212 213 202 211 232 243 232 220 195 208 222 201 194 188 172 222 213 176 165 145 128 114 104 98
264 256 249 247 247 244 214 212 214 234 237 239 236 234 234 232 199 201 225 223 219 206 177 190 11 54 71 74 213 201 196 203 196 174 189 222 185 181 173 155 134 131 118
269 267 259 252 249 251 223 206 215 236 238 237 233 230 224 235 200 189 219 224 224 216 197 183 189 187 193 179 206 228 216 221 209 180 163 211 195 206 192 164 161 166 158